Home   Weather   USA   Compton   Past weeks
Flag for USA

Past Weather in Compton, California, USA — Yesterday and Last 2 Weeks

Currently: 60 °F. Passing clouds. (Weather station: Hawthorne Municipal Airport, USA). See more current weather

Past Weather in Compton — Graph

°F

Compton Temperature Yesterday

Maximum temperature yesterday: 66 °F (at 1:53 pm)
Minimum temperature yesterday: 59 °F (at 5:53 am)
Average temperature yesterday: 62 °F

High & Low Weather Summary for the Past Weeks

 TemperatureHumidityPressure
High72 °F (May 4, 12:53 pm)90% (May 4, 11:53 pm)30.08 "Hg (May 4, 11:53 pm)
Low56 °F (May 16, 3:53 am)55% (May 8, 1:53 pm)29.83 "Hg (May 3, 2:53 am)
Average62 °F73%29.96 "Hg
* Reported May 3 12:03 am — May 17 11:25 pm, Compton. Weather by CustomWeather, © 2021

Note: Actual official high and low records may vary slightly from our data, if they occured in-between our weather recording intervals... More about our weather records

Compton Weather History for the Previous 24 Hours

Scroll right to see more
 ConditionsComfort  
Time TempWeatherWind HumidityBarometerVisibility
11:25 pm
Mon, May 17
59 °FPassing clouds.3 mph78%30.05 "Hg10 mi
11:15 pm59 °FPassing clouds.5 mph78%30.06 "Hg10 mi
11:08 pm59 °FPassing clouds.5 mph78%30.06 "Hg10 mi
10:08 pm59 °FPassing clouds.3 mph78%30.04 "Hg10 mi
10:00 pm60 °FPassing clouds.3 mph75%30.04 "Hg10 mi
8:53 pm60 °FClear.No wind72%30.02 "Hg10 mi
7:53 pm60 °FClear.8 mph72%30.01 "Hg10 mi
6:53 pm61 °FPassing clouds.9 mph70%30.01 "Hg10 mi
5:53 pm63 °FPassing clouds.12 mph65%30.01 "Hg10 mi
4:53 pm64 °FScattered clouds.12 mph65%30.01 "Hg10 mi
4:17 pm64 °FPartly sunny.12 mph65%30.02 "Hg10 mi
4:06 pm64 °FScattered clouds.12 mph65%30.02 "Hg10 mi
3:53 pm65 °FPartly sunny.12 mph63%30.02 "Hg10 mi
2:53 pm65 °FPartly sunny.12 mph63%30.03 "Hg10 mi
2:16 pm66 °FMostly cloudy.10 mph63%30.04 "Hg10 mi
2:09 pm66 °FMore clouds than sun.8 mph61%30.04 "Hg10 mi
1:53 pm66 °FMostly cloudy.12 mph59%30.03 "Hg10 mi
1:19 pm65 °FMore clouds than sun.9 mph63%30.04 "Hg10 mi
12:53 pm64 °FOvercast.10 mph65%30.04 "Hg10 mi
11:53 am63 °FMostly cloudy.8 mph68%30.05 "Hg10 mi
11:36 am63 °FMore clouds than sun.8 mph68%30.06 "Hg10 mi
11:10 am62 °FMore clouds than sun.10 mph70%30.06 "Hg10 mi
10:53 am62 °FMostly cloudy.13 mph67%30.06 "Hg10 mi
9:53 am62 °FMore clouds than sun.9 mph67%30.05 "Hg10 mi
9:24 am62 °FMore clouds than sun.8 mph67%30.05 "Hg10 mi
8:53 am61 °FMostly cloudy.6 mph70%30.05 "Hg10 mi
7:53 am60 °FOvercast.7 mph72%30.05 "Hg10 mi
6:53 am60 °FMostly cloudy.3 mph72%30.03 "Hg10 mi
6:38 am59 °FMostly cloudy.6 mph75%30.03 "Hg10 mi
5:53 am59 °FOvercast.5 mph78%30.03 "Hg10 mi
4:53 am60 °FOvercast.7 mph75%30.01 "Hg10 mi
4:38 am60 °FMostly cloudy.5 mph75%30.02 "Hg10 mi
4:12 am60 °FMostly cloudy.No wind72%30.01 "Hg10 mi
3:53 am60 °FMostly cloudy.3 mph72%30.01 "Hg10 mi
3:34 am60 °FOvercast.5 mph72%30.01 "Hg10 mi
2:53 am60 °FOvercast.No wind72%30.01 "Hg10 mi
1:53 am60 °FMostly cloudy.No wind69%30.01 "Hg10 mi
1:14 am60 °FMostly cloudy.5 mph69%30.02 "Hg10 mi
1:03 am60 °FOvercast.5 mph72%30.02 "Hg10 mi
Weather by CustomWeather, © 2021

See weather overview